SAUDISAT 4

Last updated on Tue Sep 22 2026 00:03:52 GMT+0000 (Coordinated Universal Time)

1 40016U 14033G 26264.35258073 .00000432 00000+0 63367-4 0 9992 2 40016 97.7727 47.2497 0045932 119.6134 240.9666 14.79646228660298
UTC large
Height (km)
Speed (km/s)
/
Latitude / Longitude
Inclination (degrees)
Orbital Period (minutes)
Azimuth
Elevation
Range (km)
Doppler Factor

Next 0 passes for location: London (51.5072 / 0.1276)

No passes found over London.
SAUDISAT 4